Home > Weather > Kortrijk > Past weeks

Flag for Belgium Past Weather in Kortrijk, Belgium — Yesterday and Last 2 Weeks

Now
52 °F

Light fog.


Feels Like: 52 °F
Forecast: 53 / 78 °F
Wind: No wind

Location: Lille Airport

Current Time: Aug 30, 2016 at 7:14:33 AM

Latest Report: Aug 30, 2016 at 6:30 AM


Visibility: N/A

Pressure: 30.27 "Hg

Humidity: 94%

Dew Point: 50 °F

Location of KortrijkLocation

Past Weather in Kortrijk — Graph

°F

Kortrijk Temperature Yesterday

Maximum temperature yesterday: 72 °F (at 1:30 PM)
Minimum temperature yesterday: 61 °F (at 11:00 PM)
Average temperature yesterday: 67 °F

High & Low Weather Summary for the Past Weeks

 TemperatureHumidityPressure
High95 °F (Aug 25, 4:30 PM)100% (Aug 20, 3:00 AM)30.30 "Hg (Aug 20, 3:00 AM)
Low52 °F (Aug 30, 6:00 AM)28% (Aug 24, 5:00 PM)29.74 "Hg (Aug 19, 5:00 PM)
Average70 °F69%30.02 "Hg
* Reported Aug 15 6:00 AM — Aug 30 6:00 AM, Kortrijk, Weather by CustomWeather, © 2016

Note: Actual official high and low records may vary slightly from our data, if they occured in-between our weather recording intervals... More about our weather records

Advertising

Kortrijk Weather History for the Previous 24 Hours

Scroll right to see more
 ConditionsComfort  
Time TempWeatherWind HumidityBarometerVisibility
6:00 AM
Tue, Aug 30
52 °FPassing clouds.No wind94%30.27 "HgN/A
5:30 AM54 °FPassing clouds.No wind100%30.27 "Hg5 mi
5:00 AM54 °FClear.No wind100%30.27 "Hg10 mi
4:30 AM55 °FClear.No wind94%30.27 "Hg10 mi
4:00 AM55 °FClear.No wind94%30.27 "Hg10 mi
3:30 AM55 °FClear.No wind94%30.27 "Hg10 mi
3:00 AM55 °FClear.2 mph94%30.27 "Hg10 mi
2:30 AM57 °FClear.2 mph88%30.27 "Hg10 mi
2:00 AM57 °FClear.2 mph88%30.27 "Hg10 mi
1:30 AM57 °FClear.No wind94%30.27 "Hg10 mi
1:00 AM59 °FClear.No wind88%30.27 "Hg10 mi
12:30 AM59 °FClear.No wind88%30.27 "Hg10 mi
12:00 AM59 °FClear.No wind88%30.27 "Hg10 mi
11:30 PM
Mon, Aug 29
61 °FClear.3 mph83%30.27 "Hg10 mi
11:00 PM61 °FClear.5 mph83%30.24 "Hg10 mi
10:30 PM63 °FClear.5 mph77%30.24 "Hg10 mi
10:00 PM63 °FPassing clouds.7 mph77%30.24 "HgN/A
9:30 PM64 °FPassing clouds.7 mph73%30.21 "HgN/A
9:00 PM64 °FSunny.8 mph73%30.21 "Hg10 mi
8:30 PM66 °FPassing clouds.8 mph68%30.21 "HgN/A
8:00 PM68 °FPassing clouds.8 mph64%30.21 "HgN/A
7:30 PM70 °FPassing clouds.8 mph60%30.18 "HgN/A
7:00 PM70 °FPartly sunny.9 mph57%30.18 "HgN/A
6:30 PM72 °FPassing clouds.10 mph57%30.18 "HgN/A
6:00 PM72 °FPassing clouds.7 mph57%30.18 "HgN/A
5:30 PM72 °FOvercast.9 mph53%30.18 "HgN/A
5:00 PM72 °FBroken clouds.9 mph57%30.15 "HgN/A
4:30 PM70 °FPartly sunny.7 mph60%30.15 "HgN/A
4:00 PM72 °FPartly sunny.10 mph57%30.15 "HgN/A
3:30 PM72 °FScattered clouds.10 mph57%30.15 "HgN/A
3:00 PM72 °FPartly sunny.9 mph61%30.15 "HgN/A
2:30 PM72 °FPartly sunny.7 mph61%30.15 "HgN/A
2:00 PM70 °FBroken clouds.10 mph64%30.15 "HgN/A
1:30 PM72 °FMostly cloudy.9 mph61%30.15 "HgN/A
1:00 PM70 °FBroken clouds.8 mph64%30.15 "HgN/A
12:30 PM70 °FPartly sunny.9 mph64%30.12 "HgN/A
12:00 PM68 °FCloudy.10 mph73%30.12 "HgN/A
11:30 AM68 °FPartly sunny.6 mph78%30.12 "HgN/A
11:00 AM66 °FMostly cloudy.7 mph83%30.12 "HgN/A
10:30 AM64 °FPartly sunny.7 mph83%30.12 "HgN/A
10:00 AM64 °FDrizzle. Overcast.8 mph94%30.09 "Hg4 mi
9:30 AM64 °FOvercast.7 mph88%30.09 "HgN/A
9:00 AM64 °FMostly cloudy.7 mph88%30.09 "HgN/A
8:30 AM64 °FCloudy.6 mph88%30.07 "HgN/A
8:00 AM64 °FPartly sunny.6 mph88%30.07 "HgN/A
7:30 AM63 °FOvercast.3 mph94%30.07 "HgN/A
7:00 AM63 °FPassing clouds.3 mph88%30.07 "HgN/A
Weather by CustomWeather, © 2016

See weather overviewHow to use our weather pages